Date String (YYYY-MM-DD hh:mm:ss) UTC,Instrument flags,Ambient pressure (hPa),Sample flow (lpm),Bypass flow (lpm),Sample temperature (°C),Ambient temperature (°C),ASC tube jacket temperature (°C),LED temperature (°C),Box temperature (°C),Sample RH (%),Span deviation,Mass concentration (μg/m³),Mass concentration (μg/m³),Mass concentration (μg/m³)
DateTimeUTC,F1_M11,P_M11,Q1_M11,Q2_M11,T1_M11,T2_M11,T3_M11,T4_M11,T5_M11,U1_M11,ZSPAN_M11,X0_M11,X2_M11,X1_M11
2023-05-06 18:00:00,,0826.9,5.00,0.00,27.1,25.4,00.0,35.4,28.5,08.0,0000.0,0004.30,0002.18,0001.26
2023-05-06 18:01:00,,0826.9,5.00,0.00,27.1,25.4,00.0,35.4,28.6,08.0,0000.0,0004.02,0002.22,0001.26
2023-05-06 18:02:00,,0826.9,5.00,0.00,27.1,25.4,00.0,35.4,28.6,08.2,0000.0,0004.04,0002.23,0001.27
2023-05-06 18:03:00,,0827.0,4.99,0.00,27.0,25.4,00.0,35.4,28.6,08.0,0000.0,0004.12,0002.25,0001.27
2023-05-06 18:04:00,,0826.9,5.00,0.00,27.0,25.4,00.0,35.4,28.6,07.9,0000.0,0004.19,0002.26,0001.27
2023-05-06 18:05:00,,0826.8,5.01,0.00,27.0,25.5,00.0,35.4,28.6,08.3,0000.0,0004.20,0002.25,0001.26
2023-05-06 18:06:00,,0826.8,5.01,0.00,27.0,25.5,00.0,35.4,28.6,08.4,0000.0,0004.07,0002.20,0001.27
2023-05-06 18:07:00,,0826.7,5.00,0.00,27.1,25.5,00.0,35.4,28.6,08.6,0000.0,0004.13,0002.20,0001.27
2023-05-06 18:08:00,,0826.8,5.00,0.00,27.1,25.5,00.0,35.4,28.6,08.6,0000.0,0004.11,0002.21,0001.28
2023-05-06 18:09:00,,0826.9,5.00,0.00,27.1,25.5,00.0,35.4,28.6,07.9,0000.0,0004.23,0002.23,0001.29
2023-05-06 18:10:00,,0826.8,5.00,0.00,27.1,25.5,00.0,35.4,28.6,08.2,0000.0,0004.20,0002.23,0001.30
2023-05-06 18:11:00,,0826.8,5.00,0.00,27.1,25.5,00.0,35.4,28.6,08.4,0000.0,0004.27,0002.24,0001.30
2023-05-06 18:12:00,,0826.7,5.00,0.00,27.1,25.5,00.0,35.4,28.6,08.7,0000.0,0004.53,0002.26,0001.29
2023-05-06 18:13:00,,0826.7,5.00,0.00,27.1,25.5,00.0,35.4,28.6,08.6,0000.0,0004.60,0002.24,0001.27
2023-05-06 18:14:00,,0826.7,5.00,0.00,27.1,25.5,00.0,35.4,28.6,08.9,0000.0,0004.47,0002.19,0001.26
2023-05-06 18:15:00,,0826.7,5.00,0.00,27.1,25.5,00.0,35.4,28.6,08.5,0000.0,0004.67,0002.16,0001.27
2023-05-06 18:16:00,,0826.7,5.00,0.00,27.1,25.5,00.0,35.4,28.6,08.7,0000.0,0004.71,0002.17,0001.29
2023-05-06 18:17:00,,0826.7,5.00,0.00,27.1,25.5,00.0,35.4,28.6,08.7,0000.0,0004.67,0002.16,0001.28
2023-05-06 18:18:00,,0826.6,5.00,0.00,27.1,25.6,00.0,35.4,28.6,08.8,0000.0,0004.64,0002.16,0001.29
2023-05-06 18:19:00,,0826.6,5.00,0.00,27.1,25.6,00.0,35.4,28.7,08.1,0000.0,0005.19,0002.16,0001.29
2023-05-06 18:20:00,,0826.6,5.00,0.00,27.1,25.6,00.0,35.4,28.7,07.7,0000.0,0005.80,0002.11,0001.28
2023-05-06 18:21:00,,0826.6,5.00,0.00,27.2,25.6,00.0,35.5,28.7,07.8,0000.0,0006.00,0002.14,0001.27
2023-05-06 18:22:00,,0826.6,5.00,0.00,27.2,25.6,00.0,35.5,28.7,07.9,0000.0,0006.24,0002.21,0001.29
2023-05-06 18:23:00,,0826.6,4.99,0.00,27.2,25.6,00.0,35.5,28.7,08.0,0000.0,0006.07,0002.20,0001.30
2023-05-06 18:24:00,,0826.6,5.00,0.00,27.2,25.6,00.0,35.5,28.7,07.8,0000.0,0005.95,0002.17,0001.32
2023-05-06 18:25:00,,0826.6,5.01,0.00,27.2,25.6,00.0,35.5,28.7,08.1,0000.0,0005.87,0002.17,0001.33
2023-05-06 18:26:00,,0826.5,5.01,0.00,27.2,25.6,00.0,35.5,28.7,07.9,0000.0,0005.76,0002.22,0001.32
2023-05-06 18:27:00,,0826.5,5.00,0.00,27.2,25.6,00.0,35.5,28.7,07.9,0000.0,0005.80,0002.23,0001.32
2023-05-06 18:28:00,,0826.5,5.00,0.00,27.2,25.7,00.0,35.5,28.7,07.9,0000.0,0005.92,0002.28,0001.33
2023-05-06 18:29:00,,0826.6,5.00,0.00,27.2,25.7,00.0,35.5,28.7,07.9,0000.0,0006.14,0002.38,0001.33
2023-05-06 18:30:00,,0826.5,5.00,0.00,27.2,25.7,00.0,35.5,28.8,08.1,0000.0,0005.60,0002.39,0001.33
2023-05-06 18:31:00,,0826.6,5.00,0.00,27.2,25.7,00.0,35.5,28.8,08.1,0000.0,0004.92,0002.41,0001.33
2023-05-06 18:32:00,,0826.5,5.00,0.00,27.2,25.7,00.0,35.5,28.8,08.1,0000.0,0004.78,0002.42,0001.34
2023-05-06 18:33:00,,0826.6,5.00,0.00,27.2,25.7,00.0,35.5,28.8,08.1,0000.0,0004.63,0002.38,0001.33
2023-05-06 18:34:00,,0826.6,5.00,0.00,27.2,25.7,00.0,35.5,28.7,08.1,0000.0,0004.91,0002.45,0001.35
2023-05-06 18:35:00,,0826.5,5.01,0.00,27.3,25.7,00.0,35.5,28.8,08.2,0000.0,0004.95,0002.48,0001.35
2023-05-06 18:36:00,,0826.4,5.00,0.00,27.3,25.7,00.0,35.5,28.8,08.1,0000.0,0005.13,0002.52,0001.36
2023-05-06 18:37:00,,0826.4,5.00,0.00,27.3,25.8,00.0,35.6,28.8,08.5,0000.0,0005.14,0002.54,0001.36
2023-05-06 18:38:00,,0826.4,5.00,0.00,27.3,25.8,00.0,35.6,28.8,08.3,0000.0,0005.18,0002.54,0001.36
2023-05-06 18:39:00,,0826.4,5.00,0.00,27.3,25.8,00.0,35.6,28.8,08.2,0000.0,0005.22,0002.49,0001.34
2023-05-06 18:40:00,,0826.4,5.00,0.00,27.3,25.8,00.0,35.6,28.8,08.0,0000.0,0005.25,0002.39,0001.32
2023-05-06 18:41:00,,0826.4,5.00,0.00,27.3,25.8,00.0,35.6,28.9,07.7,0000.0,0005.38,0002.42,0001.32
2023-05-06 18:42:00,,0826.4,5.00,0.00,27.3,25.8,00.0,35.6,28.9,07.8,0000.0,0005.56,0002.42,0001.33
2023-05-06 18:43:00,,0826.4,5.00,0.00,27.3,25.8,00.0,35.6,28.9,08.0,0000.0,0005.59,0002.42,0001.32
2023-05-06 18:44:00,,0826.4,5.00,0.00,27.3,25.8,00.0,35.6,28.9,08.1,0000.0,0005.73,0002.46,0001.32
2023-05-06 18:45:00,,0826.4,5.00,0.00,27.3,25.8,00.0,35.6,28.9,08.2,0000.0,0005.49,0002.40,0001.31
2023-05-06 18:46:00,,0826.4,5.01,0.00,27.3,25.8,00.0,35.6,28.9,08.0,0000.0,0005.65,0002.37,0001.29
2023-05-06 18:47:00,,0826.4,5.00,0.00,27.4,25.9,00.0,35.6,28.9,08.1,0000.0,0005.62,0002.32,0001.27
2023-05-06 18:48:00,,0826.2,5.01,0.00,27.4,25.9,00.0,35.6,28.9,08.1,0000.0,0005.46,0002.28,0001.28
2023-05-06 18:49:00,,0826.2,4.99,0.00,27.4,25.9,00.0,35.6,28.9,08.2,0000.0,0005.41,0002.27,0001.27
2023-05-06 18:50:00,,0826.2,5.00,0.00,27.4,25.9,00.0,35.7,28.9,08.2,0000.0,0005.29,0002.28,0001.27
2023-05-06 18:51:00,,0826.2,4.99,0.00,27.4,25.9,00.0,35.7,28.9,08.2,0000.0,0005.07,0002.28,0001.28
2023-05-06 18:52:00,,0826.2,5.01,0.00,27.4,25.9,00.0,35.7,29.0,08.2,0000.0,0004.81,0002.22,0001.27
2023-05-06 18:53:00,,0826.2,5.00,0.00,27.4,25.9,00.0,35.7,29.0,08.2,0000.0,0004.58,0002.20,0001.27
2023-05-06 18:54:00,,0826.2,5.00,0.00,27.4,25.9,00.0,35.7,29.0,07.8,0000.0,0004.59,0002.19,0001.26
2023-05-06 18:55:00,,0826.1,5.00,0.00,27.4,25.9,00.0,35.7,29.0,07.7,0000.0,0004.82,0002.16,0001.26
2023-05-06 18:56:00,,0826.1,5.00,0.00,27.4,26.0,00.0,35.7,29.0,07.7,0000.0,0005.44,0002.12,0001.24
2023-05-06 18:57:00,,0826.1,5.00,0.00,27.5,26.0,00.0,35.7,29.0,07.5,0000.0,0005.27,0002.14,0001.25
2023-05-06 18:58:00,,0826.2,5.00,0.00,27.5,26.0,00.0,35.7,29.1,07.6,0000.0,0005.29,0002.17,0001.26
2023-05-06 18:59:00,,0826.2,5.00,0.00,27.5,26.0,00.0,35.7,29.0,07.9,0000.0,0005.36,0002.13,0001.26
